• MPC Preparation (Info)

  • MPEC 2011-M23 : 2011 MD

    The following Minor Planet Electronic Circular may be linked-to from your own Web pages, but must not otherwise be redistributed electronically.

    A form allowing access to any MPEC is at the bottom of this page.


    Read MPEC 2011-M22 Read MPEC 2011-M24


    M.P.E.C. 2011-M23                                Issued 2011 June 23, 11:04 UT
    
         The Minor Planet Electronic Circulars contain information on unusual
             minor planets and routine data on comets.  They are published
       on behalf of Commission 20 of the International Astronomical Union by the
              Minor Planet Center, Smithsonian Astrophysical Observatory,
                              Cambridge, MA 02138, U.S.A.
    
                 Prepared using the Tamkin Foundation Computer Network
    
                                  MPC@CFA.HARVARD.EDU
                URL https://www.minorplanetcenter.net/    ISSN 1523-6714
    
                                        2011 MD
    
    Observations:
         K11M00D* C2011 06 22.26489 16 52 05.99 +40 34 17.5          18.9  cEM023704
         K11M00D  C2011 06 22.27521 16 51 58.24 +40 33 54.6          19.2  cEM023704
         K11M00D  C2011 06 22.29608 16 51 42.63 +40 32 58.8          19.4  cEM023704
         K11M00D  C2011 06 22.30667 16 51 34.94 +40 32 28.1          19.3  cEM023704
         K11M00D KC2011 06 23.07075 16 49 19.28 +39 58 56.4                uEM023J95
         K11M00D KC2011 06 23.07233 16 49 18.43 +39 58 48.3                uEM023J95
         K11M00D KC2011 06 23.07752 16 49 15.43 +39 58 22.8          18.3 RuEM023J95
         K11M00D KC2011 06 23.19989216 50 03.62 +40 02 28.8          18.5 RuEM023H36
         K11M00D KC2011 06 23.20205516 50 01.78 +40 02 24.9          18.4 RuEM023H36
         K11M00D KC2011 06 23.20428016 49 59.86 +40 02 20.5          18.4 RuEM023H36
         K11M00D KC2011 06 23.20646216 49 57.97 +40 02 16.3          18.6 RuEM023H36
         K11M00D |C2011 06 23.21662 16 50 09.20 +40 04 30.0                cEM023H06
         K11M00D |C2011 06 23.21791 16 50 08.04 +40 04 28.0                cEM023H06
         K11M00D |C2011 06 23.21919 16 50 06.85 +40 04 25.5          17.9 RcEM023H06
         K11M00D  C2011 06 23.26779 16 49 32.80 +40 02 54.0          19.1 RcEM023854
         K11M00D  C2011 06 23.27072 16 49 30.10 +40 02 47.4          18.7 RcEM023854
         K11M00D  C2011 06 23.27366 16 49 27.23 +40 02 35.8          19.1 RcEM023854
    
    Observer details:
    704 Lincoln Laboratory ETS, New Mexico.  Observers M. Blythe, G. Spitz,
        R. Brungard, J. Paige, P. Festler, T. McVey, A. Valdivia.  1.0-m f/2.15
        reflector + CCD.
    854 Sabino Canyon Observatory, Tucson.  Observer J. E. McGaha.  0.36-m f/10.0
        Schmidt-Cassegrain + CCD.
    H06 RAS Observatory, Mayhill.  Observer H. Sato.  0.25-m f/3.4 reflector + CCD.
    H36 Sandlot Observatory, Scranton.  Observer G. Hug.  0.56-m reflector + CCD.
    J95 Great Shefford.  Observer P. Birtwhistle.  0.40-m f/6.0 Schmidt-Cassegrain
        + CCD.
    
    Orbital elements:
    2011 MD                                                  Earth MOID = 0.0006 AU
    Epoch 2011 Aug. 27.0 TT = JDT 2455800.5                 MPC
    M  51.54504              (2000.0)            P               Q
    n   0.90091518     Peri.    6.12962     +0.15113548     +0.98754135
    a   1.0617284      Node   272.56906     -0.90879587     +0.12137078
    e   0.0431456      Incl.    2.51400     -0.38890632     +0.10015593
    P   1.09           H   27.7           G   0.15           U   3
    Residuals in seconds of arc
    110622 704  0.4+  0.3+    110623 J95  0.1-  0.0     110623 H06 (0.4+  3.8+)
    110622 704  0.4+  0.2-    110623 H36  0.7-  0.4+    110623 H06 (0.1+  3.2+)
    110622 704  0.8-  0.8-    110623 H36  0.5-  0.5+    110623 854  0.3+  0.3+
    110622 704  0.3-  1.3+    110623 H36  0.5-  0.4+    110623 854  0.8+  1.8+
    110623 J95  0.1+  0.1-    110623 H36  0.6-  0.6+    110623 854  0.6-  1.3-
    110623 J95  0.7+  0.4-    110623 H06 (0.3+  4.0+)
    
